Weather in Krasnosillia

Ukraine / Kirovohrad Region     48°53′39″N   32°26′44″E
temp.,
°C
wind,
m/s
gust,
m/s
humid.,
%
clouds,
%
prec.,
mm/h
press.,
hPa
HPBL,
m
16 june, wed
wed1600:00+17ene228939 3.3 100923
03:00+16ne229486 4.9 100939
06:00+17ne2293100 0.2 100967
09:00+18ne2394100 0.7 1011182
12:00+22e457589 3.4 1011399
15:00+20ne5785100 7.9 1012432
18:00+20ne3582100 2.6 1012244
21:00+17nne3589100 3.9 101389
17 june, thu
thu1700:00+17nne33925 0.0 101440
03:00+16nne3594100 0.0 101480
06:00+17nne3795100 0.0 1015196
09:00+20ne6985100 0.0 1015521
12:00+24ne7871100 0.4 10161092
15:00+25ne796490 0.6 10161677
18:00+23ne7108292 1.8 1016826
21:00+20ne61291100 2.8 1017475
18 june, fri
fri1800:00+19ne7149467 1.4 1018536
03:00+18ne7149548 1.4 1018546
06:00+17ne6139562 0.0 1018568
09:00+20ene8128472 0.0 1018710
12:00+20e71284100 0.1 10191023
15:00+23ene8127587 0.2 10191325
18:00+22ene711806 0.3 1019990
21:00+20e5118862 0.3 1020401
19 june, sat
sat1900:00+18e4119460 0.1 1021355
03:00+17ene3109730 0.1 1020300
06:00+17ene499444 0.1 1021364
09:00+19ene68795 0.1 1021591
12:00+23ene796418 0.0 10201260
15:00+24e796299 0.0 10191582
18:00+24e587385 0.1 10191134
21:00+21ene5128198 0.1 1019448
20 june, sun
sun2000:00+19e412876 0.1 1019349
03:00+17ene41095100 0.1 1019273
06:00+17ene41188100 0.0 1019331
09:00+20ene6106997 0.1 1018476
12:00+24ene795778 0.0 1017882
15:00+25ene7105667 0.4 10151373
18:00+24e610675 0.0 10151166
21:00+21ene4118286 0.0 1015311